Date String (YYYY-MM-DD hh:mm:ss) UTC,Instrument flags,Ambient pressure (hPa),Sample flow (lpm),Bypass flow (lpm),Sample temperature (°C),Ambient temperature (°C),ASC tube jacket temperature (°C),LED temperature (°C),Box temperature (°C),Sample RH (%),Span deviation,Mass concentration (μg/m³),Mass concentration (μg/m³),Mass concentration (μg/m³)
DateTimeUTC,F1_M11,P_M11,Q1_M11,Q2_M11,T1_M11,T2_M11,T3_M11,T4_M11,T5_M11,U1_M11,ZSPAN_M11,X0_M11,X2_M11,X1_M11
2023-03-04 07:00:00,,0818.8,5.01,0.00,22.2,22.4,00.0,30.7,24.1,14.4,-000.4,0011.60,0007.05,0006.55
2023-03-04 07:01:00,,0818.8,4.99,0.00,22.2,22.0,00.0,30.7,24.0,15.0,-000.4,0011.05,0007.02,0006.52
2023-03-04 07:02:00,,0818.8,5.00,0.00,22.2,21.6,00.0,30.8,24.0,15.6,-000.3,0011.11,0007.06,0006.58
2023-03-04 07:03:00,,0818.8,5.00,0.00,22.1,21.2,00.0,30.8,23.9,15.0,-000.4,0011.22,0007.17,0006.71
2023-03-04 07:04:00,,0818.8,5.00,0.00,22.1,21.0,00.0,30.8,23.8,14.0,-000.5,0011.27,0007.22,0006.78
2023-03-04 07:05:00,,0818.8,5.00,0.00,22.1,20.8,00.0,30.8,23.8,13.5,-000.2,0011.39,0007.41,0006.97
2023-03-04 07:06:00,,0818.9,5.00,0.00,22.1,20.6,00.0,30.8,23.8,14.4,-000.3,0011.42,0007.73,0007.27
2023-03-04 07:07:00,,0818.9,5.01,0.00,22.1,20.5,00.0,30.8,23.7,15.3,-000.3,0011.34,0007.99,0007.56
2023-03-04 07:08:00,,0818.9,5.01,0.00,22.1,20.3,00.0,30.8,23.7,15.9,-000.4,0011.70,0008.34,0007.89
2023-03-04 07:09:00,,0818.9,5.01,0.00,22.0,20.2,00.0,30.8,23.7,16.2,-000.5,0012.12,0008.74,0008.29
2023-03-04 07:10:00,,0818.9,5.01,0.00,22.0,20.1,00.0,30.8,23.6,16.5,-000.5,0012.69,0009.14,0008.71
2023-03-04 07:11:00,,0819.0,5.01,0.00,22.0,20.0,00.0,30.8,23.6,16.7,-000.6,0012.87,0009.18,0008.75
2023-03-04 07:12:00,,0818.9,5.01,0.00,21.9,19.9,00.0,30.7,23.5,16.2,-000.7,0012.59,0009.14,0008.71
2023-03-04 07:13:00,,0819.0,5.00,0.00,21.9,19.9,00.0,30.7,23.5,16.3,-000.8,0012.34,0009.07,0008.65
2023-03-04 07:14:00,,0818.9,5.00,0.00,21.9,20.2,00.0,30.7,23.5,16.1,-000.8,0012.28,0009.05,0008.64
2023-03-04 07:15:00,,0818.9,5.01,0.00,22.0,21.4,00.0,30.7,23.8,15.7,-000.8,0012.41,0009.13,0008.71
2023-03-04 07:16:00,,0819.0,5.00,0.00,22.1,22.5,00.0,30.7,24.1,15.5,-000.9,0012.75,0009.31,0008.88
2023-03-04 07:17:00,,0819.0,5.01,0.00,22.2,22.7,00.0,30.8,24.2,15.7,-000.9,0012.82,0009.33,0008.92
2023-03-04 07:18:00,,0819.0,5.00,0.00,22.2,22.2,00.0,30.8,24.1,16.1,-000.8,0012.89,0009.37,0008.97
2023-03-04 07:19:00,,0819.0,4.98,0.00,22.2,21.7,00.0,30.8,24.0,16.4,-000.8,0012.92,0009.40,0009.02
2023-03-04 07:20:00,,0819.0,5.00,0.00,22.2,21.3,00.0,30.8,23.9,16.6,-000.7,0012.90,0009.41,0009.05
2023-03-04 07:21:00,,0819.0,5.00,0.00,22.2,20.9,00.0,30.8,23.8,16.6,-000.6,0012.73,0009.44,0009.08
2023-03-04 07:22:00,,0819.1,5.00,0.00,22.1,20.6,00.0,30.8,23.7,16.8,-000.6,0012.79,0009.54,0009.17
2023-03-04 07:23:00,,0819.1,5.01,0.00,22.1,20.4,00.0,30.8,23.7,17.0,-000.4,0013.40,0009.75,0009.36
2023-03-04 07:24:00,,0819.1,5.00,0.00,22.1,20.3,00.0,30.8,23.7,16.9,-000.2,0013.79,0009.90,0009.51
2023-03-04 07:25:00,,0819.0,5.00,0.00,22.0,20.2,00.0,30.8,23.7,16.9,-000.2,0013.91,0010.04,0009.65
2023-03-04 07:26:00,,0819.0,4.99,0.00,22.0,20.1,00.0,30.8,23.7,16.8,-000.2,0014.09,0010.24,0009.84
2023-03-04 07:27:00,,0819.0,5.00,0.00,22.0,20.1,00.0,30.8,23.6,16.9,-000.3,0014.16,0010.41,0009.99
2023-03-04 07:28:00,,0819.0,5.02,0.00,22.0,20.1,00.0,30.8,23.6,17.0,-000.3,0014.36,0010.55,0010.13
2023-03-04 07:29:00,,0819.0,4.99,0.00,22.0,20.0,00.0,30.8,23.6,17.0,-000.1,0014.53,0010.57,0010.16
2023-03-04 07:30:00,,0819.1,4.98,0.00,21.9,19.9,00.0,30.7,23.5,17.1,-000.2,0014.57,0010.57,0010.15
2023-03-04 07:31:00,,0819.1,5.00,0.00,21.9,20.1,00.0,30.7,23.5,17.2,-000.2,0014.57,0010.54,0010.13
2023-03-04 07:32:00,,0819.0,5.01,0.00,22.0,21.2,00.0,30.7,23.7,17.1,-000.3,0014.54,0010.51,0010.10
2023-03-04 07:33:00,,0819.0,4.97,0.00,22.1,22.4,00.0,30.7,24.0,17.0,-000.4,0014.30,0010.44,0010.06
2023-03-04 07:34:00,,0819.1,5.02,0.00,22.2,22.7,00.0,30.8,24.1,16.9,-000.4,0013.82,0010.38,0010.02
2023-03-04 07:35:00,,0819.1,5.01,0.00,22.2,22.3,00.0,30.8,24.1,16.9,-000.4,0013.61,0010.42,0010.01
2023-03-04 07:36:00,,0819.1,4.98,0.00,22.2,21.9,00.0,30.8,24.0,16.9,-000.5,0013.67,0010.44,0010.02
2023-03-04 07:37:00,,0819.0,5.00,0.00,22.2,21.5,00.0,30.8,24.0,16.9,-000.4,0013.53,0010.38,0010.01
2023-03-04 07:38:00,,0819.0,5.01,0.00,22.2,21.2,00.0,30.8,23.9,16.9,0000.1,0013.44,0010.32,0009.96
2023-03-04 07:39:00,,0819.0,5.00,0.00,22.2,21.0,00.0,30.9,23.9,17.0,0000.1,0013.29,0010.33,0009.99
2023-03-04 07:40:00,,0819.0,5.00,0.00,22.2,20.8,00.0,30.9,23.9,17.1,-000.2,0013.07,0010.36,0010.01
2023-03-04 07:41:00,,0819.0,5.01,0.00,22.2,20.7,00.0,30.9,23.9,17.1,-000.1,0013.08,0010.41,0010.05
2023-03-04 07:42:00,,0819.0,5.00,0.00,22.1,20.6,00.0,30.9,23.8,17.1,-000.2,0013.05,0010.43,0010.09
2023-03-04 07:43:00,,0819.0,5.01,0.00,22.1,20.5,00.0,30.9,23.8,17.2,-000.3,0012.96,0010.40,0010.08
2023-03-04 07:44:00,,0819.0,5.01,0.00,22.1,20.4,00.0,30.9,23.8,17.1,-000.2,0012.87,0010.35,0010.02
2023-03-04 07:45:00,,0819.0,4.99,0.00,22.1,20.3,00.0,30.9,23.7,17.1,-000.3,0012.89,0010.32,0009.99
2023-03-04 07:46:00,,0819.1,4.99,0.00,22.1,20.3,00.0,30.8,23.7,17.1,-000.3,0012.78,0010.24,0009.94
2023-03-04 07:47:00,,0819.1,4.98,0.00,22.0,20.2,00.0,30.8,23.7,17.1,-000.0,0012.60,0010.14,0009.87
2023-03-04 07:48:00,,0819.1,5.01,0.00,22.0,20.2,00.0,30.8,23.7,17.2,-000.1,0012.58,0010.14,0009.86
2023-03-04 07:49:00,,0819.2,5.00,0.00,22.0,20.2,00.0,30.8,23.7,17.3,-000.5,0012.59,0010.15,0009.88
2023-03-04 07:50:00,,0819.1,5.01,0.00,22.0,21.2,00.0,30.8,23.8,17.2,-000.7,0012.52,0010.10,0009.85
2023-03-04 07:51:00,,0819.2,4.99,0.00,22.2,22.3,00.0,30.8,24.1,17.1,-000.7,0012.47,0010.03,0009.77
2023-03-04 07:52:00,,0819.3,5.01,0.00,22.3,22.8,00.0,30.8,24.2,17.0,-000.6,0012.37,0009.96,0009.72
2023-03-04 07:53:00,,0819.2,4.99,0.00,22.3,22.4,00.0,30.9,24.2,17.0,-000.5,0012.28,0009.91,0009.69
2023-03-04 07:54:00,,0819.3,4.99,0.00,22.3,21.9,00.0,30.9,24.1,17.0,-000.7,0012.33,0009.94,0009.71
2023-03-04 07:55:00,,0819.3,5.00,0.00,22.3,21.5,00.0,30.9,24.1,16.9,-000.8,0012.40,0009.98,0009.74
2023-03-04 07:56:00,,0819.2,5.00,0.00,22.3,21.2,00.0,30.9,24.0,16.9,-000.9,0012.41,0009.99,0009.76
2023-03-04 07:57:00,,0819.2,5.00,0.00,22.3,20.9,00.0,30.9,23.9,17.1,-001.1,0012.51,0010.06,0009.82
2023-03-04 07:58:00,,0819.2,5.01,0.00,22.2,20.7,00.0,30.9,23.9,17.1,-001.6,0012.58,0010.14,0009.91
2023-03-04 07:59:00,,0819.3,5.00,0.00,22.2,20.6,00.0,30.9,23.9,17.1,-001.7,0012.72,0010.21,0009.97
